Morelia, Mexico

7:04 PM CDT on August 25, 2016 (GMT -0500)
Gen Francisco J Mujica International

Weather History for MMMM - October, 2012

Change the Weather History Date:

Friday, October 5, 2012

  Actual Average Record
Temperature  
Mean Temperature 59 °F -  
Max Temperature 81 °F 76 °F 100 °F (1997)
Min Temperature 37 °F 51 °F 37 °F (2012)
Degree Days  
Heating Degree Days 6    
Growing Degree Days 9 (Base 50)    
Moisture  
Dew Point 41 °F    
Average Humidity 59    
Maximum Humidity 100    
Minimum Humidity 11    
Precipitation  
Precipitation 0.00 in 0.06 in - ()
Sea Level Pressure  
Sea Level Pressure 30.14 in    
Wind  
Wind Speed 2 mph ()    
Max Wind Speed 14 mph    
Max Gust Speed -    
Visibility 7.6 miles    
Events      
Averages and records for this station are not official NWS values.
T = Trace of Precipitation, MM = Missing Value Source: Averaged Metar Reports

Daily Weather History Graph

Daily Weather History Graph

Search for Another Location

Airport or City:

Trip Planner

Search our weather history database for the weather conditions in past years. The results will help you decide how hot, cold, wet, or windy it might be!

Date:

Astronomy

Oct. 05, 2012 Rise Set
Actual Time 7:36 AM CDT 7:28 PM CDT
Civil Twilight 7:14 AM CDT 7:50 PM CDT
Nautical Twilight 6:48 AM CDT 8:15 PM CDT
Astronomical Twilight 6:22 AM CDT 8:41 PM CDT
Moon 11:28 PM CDT (10/5) 12:09 PM CDT (10/5)
Length of Visible Light 12h 36m
Length of Day
11h 52m
Waning Gibbous, 74% of the Moon is Illuminated
Oct 5
Waning Gibbous
Oct 8
Last Quarter
Oct 15
New
Oct 21
First Quarter
Oct 29
Full

Hourly Weather History & Observations

Time (CDT) Temp. Dew Point Humidity Pressure Visibility Wind Dir Wind Speed Gust Speed Precip Events Conditions
12:50 AM 56 °F 47 °F 63% 29.89 in 5 mi SSW 2.2 mph - -  
12:50 AM 53.6 °F 44.6 °F 72% 29.97 in 8.0 mi Calm Calm - N/A   Clear
1:44 AM 51.8 °F 46.4 °F 82% 30.35 in 8.0 mi Calm Calm - N/A   Clear
2:45 AM 48.2 °F 44.6 °F 87% 30.22 in 8.0 mi Calm Calm - N/A   Clear
3:47 AM 48.2 °F 42.8 °F 82% 29.94 in 8.0 mi Calm Calm - N/A   Clear
3:50 AM 51 °F 46 °F 76% 29.97 in 5 mi South 2.2 mph - -  
4:46 AM 44.6 °F 41.0 °F 87% 30.31 in 8.0 mi Calm Calm - N/A   Clear
5:43 AM 42.8 °F 39.2 °F 87% 30.31 in 8.0 mi Calm Calm - N/A   Clear
6:46 AM 37.4 °F 37.4 °F 100% 30.04 in 8.0 mi Calm Calm - N/A   Clear
6:50 AM 47 °F 43 °F 82% 30.06 in 6 mi South 2.2 mph - -  
7:51 AM 37.4 °F 37.4 °F 100% 30.34 in 8.0 mi Calm Calm - N/A   Clear
8:30 AM 42.8 °F 42.8 °F 100% 30.34 in 8.0 mi Calm Calm - N/A   Clear
8:52 AM 46.4 °F 42.8 °F 87% 30.35 in 8.0 mi Calm Calm - N/A   Clear
9:18 AM 51.8 °F 44.6 °F 76% 30.35 in 8.0 mi Calm Calm - N/A   Clear
9:50 AM 57 °F 44 °F 53% 30.16 in 9 mi NNE 2.2 mph - -  
10:03 AM 55.4 °F 53.6 °F 94% 30.09 in 8.0 mi Calm Calm - N/A   Clear
10:29 AM 60.8 °F 44.6 °F 55% 30.35 in 8.0 mi Calm Calm - N/A   Clear
10:50 AM 60.8 °F 42.8 °F 52% 30.35 in 8.0 mi Calm Calm - N/A   Clear
11:29 AM 66.2 °F 41.0 °F 40% 30.34 in 8.0 mi Calm Calm - N/A   Clear
11:48 AM 68.0 °F 37.4 °F 33% 30.33 in 8.0 mi Calm Calm - N/A   Clear
12:50 PM 73 °F 37 °F 17% 30.07 in 9 mi North 4.5 mph - -  
1:40 PM 73.4 °F 41.0 °F 31% 30.27 in 8.0 mi NW 8.1 mph - N/A   Clear
3:45 PM 78.8 °F 33.8 °F 20% 29.88 in 8.0 mi NW 13.8 mph - N/A   Clear
3:50 PM 78 °F 38 °F 14% 29.90 in 9 mi ENE 6.7 mph - -  
4:45 PM 78.8 °F 30.2 °F 17% 30.18 in 8.0 mi NW 6.9 mph - N/A   Clear
5:45 PM 78.8 °F 26.6 °F 15% 30.17 in 8.0 mi NNW 9.2 mph - N/A   Clear
6:45 PM 75.2 °F 32.0 °F 21% 29.88 in 8.0 mi NNE 6.9 mph - N/A   Clear
6:50 PM 74 °F 30 °F 11% 29.78 in 9 mi West 4.5 mph - -  
7:08 PM 69.8 °F 35.6 °F 28% 30.18 in 8.0 mi North 5.8 mph - N/A   Clear
7:49 PM 62.6 °F 35.6 °F 37% 30.19 in 7.0 mi North 3.5 mph - N/A   Clear
8:17 PM 57.2 °F 39.2 °F 51% 30.19 in 7.0 mi Calm Calm - N/A   Clear
8:45 PM 53.6 °F 41.0 °F 62% 30.20 in 7.0 mi Calm Calm - N/A   Clear
9:43 PM 51.8 °F 41.0 °F 67% 29.95 in 7.0 mi Calm Calm - N/A   Clear
9:55 PM 63 °F 58 °F 80% 29.78 in 5 mi SSW 2.2 mph - -  
10:41 PM 48.2 °F 41.0 °F 76% 30.24 in 7.0 mi Variable 2.3 mph - N/A   Clear
11:41 PM 48.2 °F 44.6 °F 87% 30.25 in 7.0 mi Calm Calm - N/A   Clear